Weather History for Douglas, WY

Change the Weather History Date:

Monday, November 25, 2013

  Actual Average Record
Temperature  
Mean Temperature 34 °F 28 °F  
Max Temperature 45 °F 42 °F 59 °F (2008)
Min Temperature 22 °F 16 °F -2 °F (2010)
Degree Days  
Heating Degree Days 31 36  
Month to date heating degree days 773 768  
Since 1 July heating degree days 1591 1635  
Moisture  
Dew Point 21 °F    
Average Humidity 63    
Maximum Humidity 88    
Minimum Humidity 37    
Precipitation  
Precipitation 0.00 in 0.02 in 0.16 in (2012)
Month to date precipitation 0.16 0.57  
Year to date precipitation 9.42 12.91  
Sea Level Pressure  
Sea Level Pressure 30.30 in    
Wind  
Wind Speed 8 mph (NW)    
Max Wind Speed 16 mph    
Max Gust Speed 20 mph    
Visibility 10 miles    
Events      
T = Trace of Precipitation, MM = Missing Value Source: NWS Daily Summary

Daily Weather History Graph

Daily Weather History Graph

Search for Another Location

Airport:

Trip Planner

Search our weather history database for the weather conditions in past years. The results will help you decide how hot, cold, wet, or windy it might be!

Date:

Astronomy

Nov. 25, 2013 Rise Set
Actual Time 7:05 AM MST 4:30 PM MST
Civil Twilight 6:34 AM MST 5:02 PM MST
Nautical Twilight 5:59 AM MST 5:37 PM MST
Astronomical Twilight 5:26 AM MST 6:10 PM MST
Moon No Moon Rise 12:18 PM MST (11/25)
Length of Visible Light 10h 27m
Length of Day
9h 24m
Waning Gibbous, 50% of the Moon is Illuminated
Nov 25
Waning Gibbous
Nov 25
Last Quarter
Dec 2
New
Dec 9
First Quarter
Dec 17
Full

Hourly Weather History & Observations

Time (MST) Temp. Windchill Dew Point Humidity Pressure Visibility Wind Dir Wind Speed Gust Speed Precip Events Conditions
12:53 AM 32.0 °F 22.1 °F 19.9 °F 61% 30.15 in 10.0 mi NW 13.8 mph - N/A   Overcast
1:53 AM 32.0 °F 23.0 °F 19.9 °F 61% 30.15 in 10.0 mi WNW 11.5 mph - N/A   Overcast
2:53 AM 30.9 °F 23.5 °F 19.9 °F 64% 30.17 in 10.0 mi NW 8.1 mph - N/A   Overcast
3:53 AM 30.0 °F 21.7 °F 21.0 °F 69% 30.21 in 10.0 mi NNW 9.2 mph - N/A   Overcast
4:53 AM 30.0 °F 22.4 °F 21.0 °F 69% 30.24 in 10.0 mi NW 8.1 mph - N/A   Overcast
5:53 AM 30.0 °F 22.4 °F 21.0 °F 69% 30.26 in 10.0 mi NW 8.1 mph - N/A   Overcast
6:53 AM 28.9 °F 23.9 °F 21.9 °F 75% 30.28 in 10.0 mi NNW 4.6 mph - N/A   Overcast
7:53 AM 30.0 °F 22.4 °F 21.0 °F 69% 30.31 in 10.0 mi NW 8.1 mph - N/A   Mostly Cloudy
8:53 AM 36.0 °F 30.3 °F 21.9 °F 57% 30.31 in 10.0 mi NW 6.9 mph - N/A   Clear
9:53 AM 37.0 °F 31.0 °F 21.9 °F 54% 30.32 in 10.0 mi NW 8.1 mph - N/A   Overcast
10:53 AM 39.0 °F 35.7 °F 21.9 °F 50% 30.30 in 10.0 mi West 4.6 mph - N/A   Overcast
11:53 AM 42.1 °F 36.1 °F 21.0 °F 43% 30.29 in 10.0 mi NNW 10.4 mph - N/A   Overcast
12:53 PM 43.0 °F 36.4 °F 21.9 °F 43% 30.27 in 10.0 mi North 12.7 mph - N/A   Overcast
1:53 PM 45.0 °F 38.2 °F 19.9 °F 37% 30.24 in 10.0 mi NW 15.0 mph - N/A   Mostly Cloudy
2:53 PM 44.1 °F 37.7 °F 21.0 °F 40% 30.26 in 10.0 mi NNW 12.7 mph - N/A   Clear
3:53 PM 39.9 °F 34.5 °F 21.0 °F 47% 30.30 in 10.0 mi NNW 8.1 mph - N/A   Clear
4:53 PM 33.1 °F 28.7 °F 21.0 °F 61% 30.33 in 10.0 mi WNW 4.6 mph - N/A   Clear
5:53 PM 30.0 °F 24.1 °F 21.0 °F 69% 30.37 in 10.0 mi NW 5.8 mph - N/A   Clear
6:53 PM 26.1 °F 21.9 °F 19.9 °F 78% 30.40 in 10.0 mi West 3.5 mph - N/A   Clear
7:53 PM 25.0 °F 20.7 °F 19.9 °F 81% 30.41 in 10.0 mi NW 3.5 mph - N/A   Clear
8:53 PM 26.1 °F 20.5 °F 19.9 °F 78% 30.39 in 10.0 mi NNW 4.6 mph - N/A   Clear
9:53 PM 25.0 °F 16.3 °F 19.9 °F 81% 30.40 in 10.0 mi North 8.1 mph - N/A   Clear
10:53 PM 23.0 °F 17.0 °F 19.0 °F 85% 30.42 in 10.0 mi NW 4.6 mph - N/A   Clear
11:53 PM 25.0 °F 14.8 °F 19.9 °F 81% 30.39 in 10.0 mi NW 10.4 mph - N/A   Scattered Clouds